De Queen, AR

2:58 PM CDT on April 27, 2017 (GMT -0500)
Helms Sevier County

Weather History for KDEQ - December, 2012

Change the Weather History Date:

Tuesday, December 18, 2012

  Actual Average Record
Temperature  
Mean Temperature 54 °F 42 °F  
Max Temperature 71 °F 55 °F 76 °F (1957)
Min Temperature 37 °F 30 °F 11 °F (1964)
Degree Days  
Heating Degree Days 11 23  
Month to date heating degree days 240 383  
Since 1 July heating degree days 797 909  
Cooling Degree Days 0 0  
Month to date cooling degree days 14 0  
Year to date cooling degree days 2185 1941  
Moisture  
Dew Point 30 °F    
Average Humidity 64    
Maximum Humidity 100    
Minimum Humidity 27    
Precipitation  
Precipitation 0.00 in 0.12 in 1.09 in (1990)
Month to date precipitation 0.02 2.21  
Year to date precipitation 24.71 46.84  
Snow  
Snow 0.00 in - - ()
Month to date snowfall 0.0  
Since 1 July snowfall 0.0  
Snow Depth 0.00 in    
Sea Level Pressure  
Sea Level Pressure 29.84 in    
Wind  
Wind Speed 3 mph (East)    
Max Wind Speed 7 mph    
Max Gust Speed -    
Visibility 5 miles    
Events Fog    
T = Trace of Precipitation, MM = Missing Value Source: NWS Daily Summary

Daily Weather History Graph

Daily Weather History Graph

Search for Another Location

Airport or City:

Trip Planner

Search our weather history database for the weather conditions in past years. The results will help you decide how hot, cold, wet, or windy it might be!

Date:

Astronomy

Dec. 18, 2012 Rise Set
Actual Time 7:17 AM CST 5:11 PM CST
Civil Twilight 6:50 AM CST 5:38 PM CST
Nautical Twilight 6:18 AM CST 6:10 PM CST
Astronomical Twilight 5:48 AM CST 6:40 PM CST
Moon 11:12 AM CST (12/18) 11:21 PM CST (12/18)
Length of Visible Light 10h 48m
Length of Day
9h 53m
Waxing Crescent, 35% of the Moon is Illuminated
Dec 18
Waxing Crescent
Dec 19
First Quarter
Dec 28
Full
Jan 4
Last Quarter
Jan 11
New

Hourly Weather History & Observations

Time (CST) Temp. Windchill Dew Point Humidity Pressure Visibility Wind Dir Wind Speed Gust Speed Precip Events Conditions
12:53 AM 28.9 °F - 27.0 °F 92% 29.86 in 4.0 mi Calm Calm - N/A   Clear
1:53 AM 30.0 °F - 28.0 °F 92% 29.86 in 4.0 mi Calm Calm - N/A   Clear
2:00 AM 28.9 °F - 27.0 °F 92% 29.86 in 1.8 mi Calm Calm - N/A   Clear
2:20 AM 28.0 °F - 27.0 °F 96% 29.86 in 1.0 mi Calm Calm - N/A   Mist
2:28 AM 28.0 °F - 27.0 °F 96% 29.86 in 0.5 mi Calm Calm - N/A Fog Light Freezing Fog
2:39 AM 28.9 °F - 27.0 °F 92% 29.86 in 2.5 mi Calm Calm - N/A   Mostly Cloudy
2:43 AM 28.9 °F - 27.0 °F 92% 29.86 in 2.5 mi Calm Calm - N/A   Scattered Clouds
2:53 AM 28.9 °F - 28.0 °F 96% 29.86 in 1.2 mi Calm Calm - N/A   Scattered Clouds
2:56 AM 28.0 °F - 27.0 °F 96% 29.85 in 0.8 mi Calm Calm - N/A   Mist
3:06 AM 28.0 °F - 27.0 °F 96% 29.86 in 1.0 mi Calm Calm - N/A   Clear
3:25 AM 28.9 °F - 28.0 °F 96% 29.86 in 0.5 mi Calm Calm - N/A Fog Light Freezing Fog
3:53 AM 27.0 °F 23.0 °F 26.1 °F 96% 29.85 in 0.2 mi ENE 3.5 mph - N/A Fog Light Freezing Fog
4:04 AM 27.0 °F - 26.1 °F 96% 29.85 in 1.0 mi Calm Calm - N/A   Clear
4:16 AM 28.0 °F - 27.0 °F 96% 29.85 in 0.5 mi Calm Calm - N/A Fog Light Freezing Fog
4:26 AM 28.0 °F - 27.0 °F 96% 29.85 in 0.2 mi Calm Calm - N/A Fog Light Freezing Fog
4:40 AM 27.0 °F - 26.1 °F 96% 29.85 in 0.5 mi Calm Calm - N/A Fog Light Freezing Fog
4:53 AM 27.0 °F 23.0 °F 26.1 °F 96% 29.85 in 1.0 mi ENE 3.5 mph - N/A   Clear
5:04 AM 28.0 °F 24.2 °F 26.1 °F 92% 29.85 in 3.0 mi East 3.5 mph - N/A   Clear
5:53 AM 28.0 °F 24.2 °F 27.0 °F 96% 29.86 in 7.0 mi East 3.5 mph - N/A   Clear
6:53 AM 28.0 °F 24.2 °F 27.0 °F 96% 29.86 in 6.0 mi East 3.5 mph - N/A   Clear
7:53 AM 28.0 °F - 28.0 °F 100% 29.86 in 5.0 mi Calm Calm - N/A   Clear
8:53 AM 39.9 °F - 37.0 °F 89% 29.85 in 7.0 mi Calm Calm - N/A   Clear
9:53 AM 48.9 °F - 39.0 °F 69% 29.88 in 8.0 mi East 3.5 mph - N/A   Clear
10:53 AM 55.9 °F - 36.0 °F 47% 29.85 in 10.0 mi Variable 4.6 mph - N/A   Clear
11:53 AM 60.1 °F - 35.1 °F 39% 29.82 in 10.0 mi Variable 5.8 mph - N/A   Clear
2:53 PM 70.0 °F - 36.0 °F 29% 29.76 in 10.0 mi SW 6.9 mph - N/A   Clear
3:53 PM 71.1 °F - 36.0 °F 28% 29.75 in 10.0 mi Calm Calm - N/A   Clear
4:53 PM 66.9 °F - 32.0 °F 27% 29.77 in 10.0 mi WSW 5.8 mph - N/A   Clear
5:53 PM 55.9 °F - 34.0 °F 44% 29.78 in 10.0 mi Calm Calm - N/A   Clear
6:53 PM 46.9 °F - 35.1 °F 63% 29.78 in 10.0 mi ENE 3.5 mph - N/A   Clear
7:53 PM 46.0 °F 43.9 °F 35.1 °F 66% 29.81 in 10.0 mi ESE 4.6 mph - N/A   Clear
8:53 PM 42.1 °F 40.2 °F 36.0 °F 79% 29.82 in 10.0 mi ENE 3.5 mph - N/A   Clear
9:53 PM 39.0 °F 35.7 °F 34.0 °F 82% 29.82 in 8.0 mi East 4.6 mph - N/A   Clear
10:53 PM 39.9 °F 37.8 °F 36.0 °F 86% 29.82 in 10.0 mi East 3.5 mph - N/A   Clear
11:53 PM 37.9 °F 35.5 °F 35.1 °F 89% 29.82 in 10.0 mi East 3.5 mph - N/A   Clear